This is the latest recevied weather packets stored in our database for station/object PY2UEP-1. If no packets are shown the sender has not sent any weather packets the latest 10 day(s).
| Time | Temp. | Humidity | Pressure | Rain* | Wind** | Luminosity | Snow |
|---|---|---|---|---|---|---|---|
| 1778335794 | 26.11° C | 61% | 1017.8 hPa | 0 mm | - | - | - |
| 1778335494 | 26.11° C | 62% | 1017.7 hPa | 0 mm | - | - | - |
| 1778335194 | 26.11° C | 61% | 1017.8 hPa | 0 mm | - | - | - |
| 1778334894 | 26.67° C | 60% | 1017.7 hPa | 0 mm | - | - | - |
| 1778334594 | 26.67° C | 61% | 1017.7 hPa | 0 mm | - | - | - |
| 1778334294 | 26.11° C | 62% | 1017.6 hPa | 0 mm | - | - | - |
| 1778333994 | 25.56° C | 63% | 1017.8 hPa | 0 mm | - | - | - |
| 1778333694 | 25.56° C | 63% | 1017.9 hPa | 0 mm | - | - | - |
| 1778333394 | 25.56° C | 64% | 1017.8 hPa | 0 mm | - | - | - |
| 1778333094 | 25.56° C | 64% | 1018 hPa | 0 mm | - | - | - |
| 1778332794 | 25.56° C | 63% | 1018.1 hPa | 0 mm | - | - | - |
| 1778332494 | 25.56° C | 64% | 1018 hPa | 0 mm | - | - | - |
| 1778332194 | 25.56° C | 64% | 1018 hPa | 0 mm | - | - | - |
| 1778331894 | 25° C | 66% | 1018 hPa | 0 mm | - | - | - |
| 1778331594 | 24.44° C | 68% | 1017.9 hPa | 0 mm | - | - | - |
| 1778331294 | 24.44° C | 69% | 1017.8 hPa | 0 mm | - | - | - |
| 1778330994 | 23.89° C | 70% | 1017.9 hPa | 0 mm | - | - | - |
| 1778330694 | 23.89° C | 71% | 1017.8 hPa | 0 mm | - | - | - |
| 1778330394 | 23.33° C | 73% | 1017.8 hPa | 0 mm | - | - | - |
| 1778330094 | 22.78° C | 74% | 1017.9 hPa | 0 mm | - | - | - |
| 1778329794 | 22.78° C | 75% | 1018 hPa | 0 mm | - | - | - |
| 1778329494 | 22.22° C | 76% | 1017.8 hPa | 0 mm | - | - | - |
| 1778329194 | 22.22° C | 77% | 1017.9 hPa | 0 mm | - | - | - |
| 1778328894 | 22.22° C | 78% | 1017.9 hPa | 0 mm | - | - | - |
| 1778328594 | 22.22° C | 78% | 1017.7 hPa | 0 mm | - | - | - |
* Rain since midnight (hover to see other rain measurements)
** Current wind speed in m/s (hover to see current wind gust speed)